Location: *
(37.9500°N, 27.3666°E)
Time: 06:47:52
(UTC+00:00)

Cosmos 614 Rocket - Pass Details

Date: 30 May 2022
Orbit: 732 x 764 km, 74.1° (Epoch: 03 July)

Event Time Altitude Azimuth Distance (km) Brightness Sun altitude
Rises 00:48:24 0° 329° (NNW) 3,221 7.5 -19.4°
Reaches altitude 10° 00:51:01 10° 319° (NW) 2,295 6.6 -19.1°
Maximum altitude 00:55:27 29° 261° (W) 1,375 4.9 -18.5°
Enters shadow 00:55:45 29° 254° (WSW) 1,380 4.9 -18.5°
